Location: Roc des P�zouls
(43.9667°N, 3.5500°E)
Time: 04:52:56
(UTC+00:00)

Cosmos 839 Rocket - Pass Details

Date: 14 November 2019
Orbit: 968 x 2084 km, 65.9° (Epoch: 13 December)

Event Time Altitude Azimuth Distance (km) Brightness Sun altitude
Exits shadow 05:15:20 - 238° (WSW) 3,334 6.4 -15.1°
Reaches altitude 10° 05:15:58 10° 239° (WSW) 3,114 6.2 -15.0°
Maximum altitude 05:22:44 44° 311° (NW) 1,411 4.5 -13.8°
Drops below altitude 10° 05:28:43 10° 23° (NNE) 2,737 6.5 -12.7°
Sets 05:31:19 0° 31° (NNE) 3,668 7.2 -12.3°
